Location: Lesignano de� Bagni
(44.6500°N, 10.3000°E)
Time: 07:18:17
(UTC+00:00)

Meteor 1-23 Rocket - Pass Details

Date: 03 March 2021
Orbit: 838 x 887 km, 81.3° (Epoch: 19 April)

Event Time Altitude Azimuth Distance (km) Brightness Sun altitude
Rises 19:22:13 0° 351° (N) 3,406 7.7 -24.2°
Reaches altitude 10° 19:24:39 10° 354° (N) 2,471 6.9 -24.6°
Enters shadow 19:30:10 67° 74° (ENE) 917 4.1 -25.6°
